Total_Precipitation_Accumulation
0.05 0.04 0.02 0.01 0.01 0.01 0.02 0.01 0.01 0.01 0.01 0.01 0.01 0.01 0.01 0.02 0.02 0.02 0.03 0.02 0.02 0.02 0.02 0.02 0.02 0.02 0.03 0.03 0.03 0.03 0.03 0.03 0.03 0.03 0.03 0.04 0.04 0.03 0.03 0.02 0.02 0.02 0.02 0.03 0.07 0.13 0.14 0.14 0.13 0.12 0.12 0.19 0.24 0.22 0.20 0.18 0.15 0.15 0.15 0.18 0.20 0.19 0.17 0.24 0.28 0.20 0.07 0.02 0.01 0.02 0.03 0.04 0.06 0.08 0.12 0.14 0.11 0.08 0.09 0.11 0.20 0.24 0.23 0.24 0.25
0.02 0.01 0.01 0.01 0.01 0.02 0.02 0.02 0.02 0.01 0.01 0.01 0.01 0.01 0.01 0.01 0.01 0.02 0.02 0.02 0.04 0.06 0.06 0.16 0.05 0.06 0.06 0.04 0.04 0.04 0.03 0.04 0.03 0.04 0.04 0.04 0.04 0.03 0.03 0.03 0.03 0.03 0.02 0.03 0.03 0.03 0.08 0.14 0.12 0.11 0.13 0.19 0.23 0.23 0.22 0.22 0.22 0.21 0.17 0.16 0.19 0.19 0.16 0.19 0.24 0.19 0.15 0.05 0.02 0.02 0.03 0.04 0.08 0.07 0.11 0.12 0.14 0.13 0.11 0.12 0.11 0.17 0.21 0.21 0.26
0.01 0.01 0.02 0.02 0.02 0.02 0.02 0.02 0.03 0.03 0.03 0.04 0.03 0.03 0.03 0.02 0.02 0.03 0.03 0.03 0.04 0.05 0.08 0.10 0.10 0.11 0.12 0.14 0.12 0.11 0.10 0.09 0.08 0.07 0.08 0.08 0.08 0.07 0.05 0.05 0.04 0.04 0.03 0.03 0.03 0.07 0.06 0.08 0.11 0.12 0.14 0.19 0.20 0.22 0.22 0.24 0.24 0.25 0.21 0.17 0.14 0.13 0.13 0.15 0.19 0.21 0.16 0.10 0.04 0.03 0.04 0.05 0.07 0.13 0.11 0.11 0.11 0.13 0.16 0.16 0.18 0.18 0.20 0.17 0.20
0.01 0.02 0.03 0.03 0.02 0.03 0.03 0.03 0.03 0.03 0.02 0.04 0.02 0.04 0.02 0.04 0.04 0.07 0.07 0.10 0.11 0.09 0.09 0.09 0.07 0.07 0.06 0.06 0.06 0.06 0.06 0.05 0.05 0.05 0.06 0.05 0.05 0.05 0.05 0.06 0.08 0.10 0.09 0.06 0.06 0.06 0.06 0.08 0.07 0.06 0.13 0.19 0.19 0.18 0.19 0.23 0.25 0.25 0.22 0.18 0.15 0.12 0.11 0.12 0.17 0.22 0.17 0.15 0.08 0.06 0.05 0.05 0.07 0.07 0.09 0.13 0.15 0.18 0.21 0.22 0.21 0.22 0.19 0.19 0.22
0.02 0.03 0.02 0.03 0.02 0.03 0.03 0.03 0.02 0.03 0.05 0.04 0.04 0.06 0.05 0.05 0.06 0.07 0.07 0.07 0.06 0.06 0.06 0.06 0.07 0.07 0.07 0.07 0.06 0.06 0.06 0.06 0.07 0.07 0.06 0.05 0.05 0.05 0.05 0.05 0.05 0.05 0.06 0.07 0.08 0.08 0.08 0.07 0.09 0.14 0.12 0.10 0.13 0.20 0.20 0.23 0.28 0.24 0.22 0.21 0.18 0.14 0.13 0.12 0.16 0.15 0.22 0.20 0.14 0.07 0.06 0.05 0.06 0.06 0.08 0.12 0.15 0.20 0.27 0.26 0.28 0.27 0.24 0.20 0.18
0.03 0.03 0.02 0.03 0.04 0.03 0.03 0.03 0.03 0.03 0.03 0.03 0.04 0.04 0.04 0.05 0.05 0.05 0.05 0.07 0.07 0.07 0.08 0.07 0.07 0.07 0.07 0.07 0.06 0.06 0.06 0.07 0.07 0.07 0.07 0.06 0.06 0.06 0.06 0.06 0.06 0.06 0.05 0.05 0.05 0.06 0.08 0.09 0.08 0.09 0.12 0.12 0.10 0.10 0.14 0.19 0.27 0.30 0.28 0.23 0.21 0.19 0.19 0.19 0.13 0.13 0.18 0.16 0.13 0.12 0.07 0.08 0.08 0.08 0.09 0.10 0.13 0.17 0.22 0.25 0.27 0.28 0.30 0.28 0.24
0.03 0.02 0.03 0.04 0.04 0.03 0.03 0.02 0.02 0.02 0.03 0.04 0.04 0.05 0.05 0.06 0.06 0.07 0.07 0.08 0.08 0.07 0.06 0.06 0.06 0.06 0.06 0.06 0.06 0.06 0.06 0.07 0.07 0.07 0.07 0.06 0.06 0.07 0.07 0.07 0.07 0.06 0.06 0.05 0.05 0.04 0.05 0.06 0.08 0.09 0.10 0.11 0.13 0.11 0.12 0.15 0.20 0.18 0.25 0.23 0.25 0.25 0.28 0.28 0.27 0.23 0.23 0.19 0.16 0.14 0.10 0.07 0.08 0.10 0.07 0.08 0.11 0.13 0.16 0.20 0.25 0.28 0.26 0.28 0.29
0.05 0.05 0.04 0.03 0.02 0.03 0.02 0.02 0.03 0.04 0.04 0.04 0.05 0.06 0.07 0.08 0.08 0.09 0.09 0.08 0.08 0.07 0.07 0.06 0.06 0.06 0.07 0.07 0.07 0.07 0.08 0.09 0.09 0.09 0.08 0.07 0.08 0.08 0.08 0.08 0.08 0.07 0.06 0.06 0.05 0.06 0.06 0.06 0.07 0.08 0.09 0.10 0.12 0.12 0.13 0.15 0.18 0.25 0.18 0.39 0.26 0.35 0.35 0.29 0.29 0.31 0.27 0.23 0.20 0.19 0.12 0.09 0.08 0.07 0.07 0.09 0.13 0.15 0.14 0.16 0.20 0.21 0.24 0.25 0.26
0.05 0.03 0.02 0.02 0.03 0.03 0.03 0.04 0.04 0.04 0.04 0.05 0.07 0.08 0.09 0.10 0.11 0.11 0.11 0.08 0.08 0.07 0.07 0.08 0.08 0.09 0.08 0.08 0.08 0.09 0.11 0.11 0.11 0.19 0.20 0.13 0.11 0.12 0.12 0.13 0.13 0.12 0.11 0.10 0.09 0.09 0.09 0.09 0.09 0.09 0.09 0.09 0.09 0.12 0.13 0.14 0.18 0.16 0.17 0.22 0.25 0.28 0.27 0.32 0.33 0.33 0.32 0.28 0.28 0.16 0.14 0.13 0.09 0.09 0.11 0.11 0.12 0.12 0.12 0.10 0.12 0.12 0.16 0.19 0.23
0.02 0.03 0.03 0.03 0.03 0.04 0.07 0.06 0.07 0.05 0.11 0.08 0.09 0.10 0.11 0.12 0.15 0.13 0.09 0.09 0.09 0.10 0.11 0.12 0.14 0.12 0.11 0.10 0.11 0.13 0.15 0.19 0.16 0.13 0.16 0.22 0.29 0.31 0.29 0.27 0.24 0.22 0.21 0.18 0.16 0.14 0.13 0.14 0.12 0.11 0.11 0.12 0.13 0.15 0.18 0.21 0.23 0.27 0.24 0.26 0.29 0.28 0.29 0.31 0.31 0.30 0.32 0.34 0.33 0.22 0.22 0.15 0.10 0.06 0.07 0.06 0.05 0.04 0.05 0.09 0.11 0.11 0.13 0.17 0.19
0.03 0.03 0.04 0.04 0.05 0.06 0.07 0.06 0.12 0.08 0.11 0.10 0.11 0.12 0.12 0.12 0.12 0.11 0.10 0.11 0.12 0.10 0.11 0.10 0.12 0.12 0.13 0.13 0.13 0.14 0.16 0.13 0.14 0.19 0.31 0.50 0.53 0.53 0.44 0.34 0.27 0.25 0.24 0.23 0.21 0.17 0.15 0.13 0.13 0.13 0.14 0.16 0.18 0.18 0.20 0.25 0.26 0.31 0.32 0.30 0.38 0.43 0.43 0.36 0.29 0.25 0.27 0.31 0.27 0.28 0.19 0.16 0.08 0.05 0.04 0.04 0.03 0.04 0.06 0.06 0.07 0.09 0.14 0.20 0.24
0.04 0.04 0.04 0.04 0.04 0.05 0.06 0.07 0.09 0.10 0.11 0.13 0.13 0.13 0.12 0.14 0.14 0.11 0.11 0.10 0.10 0.11 0.11 0.11 0.11 0.22 0.16 0.16 0.16 0.17 0.13 0.14 0.20 0.30 0.41 0.65 0.74 0.67 0.64 0.51 0.40 0.34 0.28 0.25 0.20 0.18 0.16 0.15 0.13 0.12 0.12 0.12 0.12 0.14 0.15 0.18 0.20 0.22 0.29 0.34 0.38 0.43 0.49 0.44 0.41 0.33 0.26 0.26 0.27 0.25 0.21 0.15 0.11 0.06 0.05 0.06 0.06 0.05 0.06 0.07 0.09 0.11 0.13 0.16 0.18
0.05 0.05 0.04 0.05 0.05 0.06 0.08 0.09 0.11 0.12 0.13 0.13 0.13 0.13 0.14 0.15 0.13 0.15 0.13 0.13 0.13 0.14 0.12 0.14 0.15 0.16 0.19 0.20 0.19 0.17 0.30 0.16 0.24 0.36 0.45 0.76 0.90 0.97 0.85 0.75 0.55 0.46 0.37 0.29 0.25 0.20 0.18 0.17 0.15 0.13 0.10 0.10 0.12 0.12 0.12 0.14 0.15 0.19 0.24 0.27 0.41 0.64 0.68 0.73 0.64 0.46 0.50 0.47 0.41 0.35 0.31 0.20 0.19 0.15 0.09 0.09 0.14 0.11 0.09 0.11 0.11 0.10 0.11 0.14 0.14
0.06 0.05 0.05 0.06 0.06 0.08 0.10 0.11 0.11 0.11 0.11 0.12 0.13 0.14 0.17 0.16 0.16 0.18 0.17 0.17 0.16 0.15 0.14 0.16 0.18 0.19 0.23 0.28 0.30 0.25 0.23 0.21 0.27 0.38 0.58 0.77 0.92 1.29 0.93 0.77 0.58 0.42 0.34 0.28 0.24 0.21 0.20 0.19 0.19 0.17 0.15 0.14 0.16 0.16 0.15 0.15 0.17 0.18 0.21 0.24 0.27 0.29 0.46 0.56 0.54 0.54 0.52 0.48 0.52 0.48 0.34 0.31 0.21 0.15 0.15 0.14 0.19 0.16 0.17 0.17 0.16 0.14 0.14 0.15 0.11
0.06 0.05 0.06 0.06 0.08 0.09 0.11 0.11 0.11 0.11 0.11 0.12 0.13 0.14 0.16 0.18 0.19 0.21 0.21 0.21 0.22 0.20 0.20 0.21 0.21 0.23 0.24 0.27 0.33 0.30 0.25 0.25 0.37 0.55 0.69 0.88 1.07 1.28 0.94 0.80 0.63 0.47 0.35 0.28 0.25 0.23 0.21 0.20 0.18 0.17 0.15 0.18 0.18 0.18 0.21 0.22 0.22 0.21 0.23 0.19 0.18 0.18 0.17 0.32 0.28 0.37 0.42 0.40 0.36 0.29 0.21 0.20 0.16 0.15 0.29 0.22 0.29 0.23 0.24 0.18 0.21 0.15 0.17 0.18 0.19
0.05 0.06 0.07 0.08 0.09 0.10 0.11 0.12 0.11 0.12 0.12 0.13 0.16 0.17 0.17 0.18 0.19 0.18 0.20 0.21 0.20 0.20 0.19 0.21 0.19 0.18 0.16 0.17 0.23 0.25 0.21 0.24 0.37 0.59 0.84 1.08 1.22 1.08 0.93 0.85 0.60 0.49 0.41 0.44 0.34 0.31 0.28 0.29 0.26 0.25 0.21 0.20 0.20 0.31 0.28 0.28 0.27 0.29 0.28 0.22 0.19 0.16 0.15 0.12 0.14 0.19 0.19 0.35 0.25 0.19 0.17 0.16 0.21 0.18 0.19 0.19 0.30 0.28 0.24 0.27 0.31 0.34 0.36 0.37 0.34
0.07 0.08 0.09 0.10 0.11 0.12 0.14 0.14 0.15 0.14 0.15 0.17 0.16 0.16 0.18 0.19 0.20 0.22 0.24 0.23 0.23 0.22 0.22 0.19 0.18 0.16 0.17 0.19 0.20 0.15 0.15 0.21 0.30 0.51 0.73 0.87 1.09 1.03 0.97 0.82 0.61 0.47 0.41 0.35 0.34 0.33 0.33 0.31 0.33 0.29 0.26 0.24 0.23 0.39 0.51 0.46 0.47 0.41 0.34 0.29 0.24 0.22 0.20 0.14 0.32 0.58 0.82 0.95 0.93 0.86 0.74 0.69 0.81 1.06 1.02 0.88 0.54 0.52 0.54 0.57 0.50 0.34 0.36 0.38 0.31
0.09 0.10 0.11 0.12 0.14 0.14 0.15 0.16 0.18 0.16 0.16 0.17 0.17 0.18 0.21 0.21 0.21 0.19 0.22 0.21 0.19 0.15 0.14 0.14 0.14 0.15 0.15 0.15 0.17 0.16 0.12 0.13 0.23 0.48 0.61 0.76 1.05 1.11 1.05 0.84 0.65 0.54 0.45 0.37 0.35 0.34 0.29 0.29 0.32 0.32 0.33 0.29 0.34 0.44 0.68 0.62 0.70 0.56 0.46 0.41 0.36 0.33 0.25 0.18 0.17 0.18 0.41 0.71 0.93 1.17 1.20 1.12 1.08 1.08 1.19 1.11 1.31 0.94 0.86 1.08 0.65 0.38 0.38 0.35 0.32
0.11 0.13 0.14 0.13 0.15 0.16 0.15 0.15 0.16 0.16 0.17 0.16 0.18 0.21 0.20 0.18 0.14 0.14 0.15 0.15 0.14 0.14 0.15 0.15 0.12 0.11 0.11 0.14 0.15 0.20 0.21 0.21 0.26 0.36 0.48 0.69 0.78 0.85 0.77 0.72 0.65 0.52 0.47 0.44 0.38 0.39 0.34 0.33 0.35 0.37 0.34 0.30 0.51 0.61 0.85 0.77 0.77 0.60 0.43 0.41 0.40 0.33 0.23 0.19 0.22 0.27 0.27 0.25 0.27 0.31 0.44 0.62 0.69 0.68 0.61 0.69 0.67 0.90 0.79 0.87 0.73 0.61 0.63 0.45 0.34
0.13 0.14 0.14 0.16 0.14 0.13 0.13 0.16 0.16 0.17 0.18 0.17 0.18 0.19 0.17 0.15 0.15 0.16 0.14 0.15 0.14 0.14 0.14 0.13 0.13 0.11 0.11 0.14 0.16 0.22 0.28 0.24 0.28 0.31 0.50 0.65 0.89 0.83 0.79 0.75 0.69 0.58 0.55 0.53 0.52 0.45 0.38 0.38 0.38 0.44 0.50 0.61 0.70 0.95 1.02 1.48 1.04 0.75 0.49 0.46 0.47 0.37 0.20 0.16 0.17 0.20 0.22 0.21 0.18 0.17 0.21 0.24 0.33 0.36 0.37 0.35 0.40 0.47 0.53 0.49 0.54 0.66 0.63 0.49 0.37
0.15 0.15 0.14 0.12 0.12 0.13 0.14 0.16 0.18 0.17 0.18 0.21 0.21 0.17 0.15 0.16 0.15 0.15 0.15 0.14 0.16 0.16 0.12 0.11 0.13 0.13 0.13 0.14 0.18 0.24 0.30 0.37 0.37 0.41 0.49 0.56 0.74 0.95 0.75 0.64 0.53 0.55 0.63 0.66 0.57 0.48 0.38 0.33 0.30 0.30 0.34 0.45 0.69 0.96 1.08 1.17 1.12 0.92 0.98 0.74 0.40 0.22 0.24 0.34 0.37 0.39 0.30 0.26 0.22 0.21 0.20 0.21 0.25 0.27 0.30 0.28 0.28 0.33 0.33 0.39 0.40 0.35 0.36 0.44 0.47
0.14 0.13 0.13 0.12 0.12 0.14 0.16 0.17 0.18 0.20 0.19 0.18 0.18 0.15 0.13 0.14 0.15 0.16 0.17 0.19 0.17 0.14 0.13 0.17 0.20 0.18 0.17 0.21 0.26 0.32 0.28 0.26 0.24 0.22 0.25 0.40 0.55 0.85 0.71 0.57 0.46 0.60 0.72 0.65 0.53 0.42 0.34 0.28 0.27 0.29 0.34 0.46 0.57 0.87 1.20 1.24 1.34 1.06 0.93 1.05 1.11 0.99 0.53 0.53 0.48 0.46 0.39 0.32 0.29 0.28 0.26 0.25 0.29 0.25 0.23 0.22 0.18 0.18 0.22 0.23 0.27 0.29 0.23 0.23 0.26
0.13 0.14 0.13 0.13 0.13 0.15 0.16 0.18 0.19 0.18 0.19 0.19 0.22 0.19 0.15 0.14 0.14 0.17 0.21 0.24 0.23 0.24 0.23 0.24 0.25 0.23 0.20 0.19 0.20 0.23 0.24 0.24 0.23 0.22 0.22 0.33 0.47 0.68 0.76 0.71 0.74 0.66 0.73 0.68 0.50 0.38 0.32 0.31 0.29 0.30 0.43 0.60 0.83 1.06 1.20 1.36 1.03 1.02 1.43 1.30 1.16 1.03 1.02 0.88 0.81 0.74 0.62 0.49 0.39 0.35 0.28 0.24 0.24 0.23 0.21 0.18 0.16 0.14 0.15 0.18 0.19 0.21 0.28 0.30 0.20
0.14 0.15 0.14 0.13 0.13 0.14 0.15 0.16 0.17 0.19 0.22 0.22 0.19 0.17 0.15 0.15 0.17 0.18 0.20 0.25 0.26 0.25 0.19 0.21 0.22 0.22 0.22 0.22 0.24 0.25 0.25 0.24 0.24 0.25 0.25 0.27 0.41 0.66 0.75 0.80 0.87 0.72 0.60 0.50 0.42 0.38 0.37 0.33 0.31 0.39 0.69 0.92 1.14 1.22 1.32 1.28 1.00 1.07 1.31 1.05 1.13 1.13 0.97 0.92 0.85 0.82 0.74 0.61 0.50 0.40 0.33 0.23 0.17 0.20 0.17 0.15 0.15 0.15 0.14 0.16 0.19 0.21 0.43 0.30 0.22
0.16 0.16 0.14 0.13 0.14 0.14 0.15 0.16 0.17 0.18 0.18 0.19 0.19 0.17 0.15 0.15 0.18 0.17 0.21 0.26 0.28 0.26 0.21 0.24 0.27 0.26 0.27 0.31 0.33 0.31 0.28 0.25 0.25 0.25 0.26 0.26 0.35 0.57 0.71 0.68 0.59 0.54 0.55 0.44 0.40 0.40 0.41 0.58 0.73 0.82 0.91 1.05 1.11 1.13 1.11 1.00 1.10 0.96 0.97 0.89 0.88 0.78 0.95 0.97 0.79 0.60 0.59 0.59 0.49 0.36 0.27 0.23 0.17 0.15 0.16 0.18 0.20 0.18 0.18 0.19 0.23 0.21 0.23 0.26 0.21
0.17 0.16 0.14 0.12 0.13 0.14 0.15 0.13 0.14 0.16 0.15 0.13 0.14 0.15 0.16 0.17 0.21 0.20 0.24 0.27 0.24 0.27 0.30 0.30 0.31 0.32 0.36 0.38 0.41 0.38 0.32 0.30 0.27 0.25 0.27 0.27 0.29 0.37 0.51 0.41 0.39 0.39 0.42 0.39 0.34 0.32 0.48 0.66 0.70 0.60 0.63 0.65 0.68 0.65 0.77 0.48 0.47 0.59 0.69 0.73 0.80 0.77 0.71 0.72 0.71 0.57 0.47 0.34 0.28 0.29 0.28 0.26 0.27 0.23 0.22 0.22 0.23 0.23 0.20 0.20 0.19 0.25 0.22 0.23 0.25
0.17 0.14 0.12 0.12 0.13 0.14 0.15 0.15 0.16 0.14 0.12 0.12 0.12 0.13 0.15 0.18 0.20 0.24 0.28 0.28 0.28 0.32 0.35 0.37 0.40 0.41 0.45 0.39 0.37 0.34 0.32 0.29 0.27 0.25 0.25 0.31 0.32 0.31 0.42 0.41 0.38 0.35 0.34 0.38 0.38 0.36 0.34 0.41 0.42 0.44 0.45 0.46 0.51 0.56 0.44 0.34 0.40 0.53 0.53 0.57 0.63 0.73 0.65 0.53 0.47 0.48 0.44 0.31 0.25 0.23 0.22 0.25 0.32 0.39 0.40 0.32 0.29 0.24 0.21 0.18 0.18 0.17 0.18 0.21 0.21
0.17 0.15 0.12 0.13 0.15 0.15 0.16 0.15 0.15 0.14 0.14 0.15 0.17 0.14 0.14 0.14 0.20 0.25 0.31 0.39 0.47 0.47 0.48 0.50 0.54 0.61 0.64 0.48 0.38 0.29 0.31 0.32 0.29 0.33 0.36 0.39 0.41 0.45 0.47 0.43 0.39 0.32 0.33 0.35 0.35 0.33 0.35 0.41 0.50 0.58 0.68 0.71 0.64 0.59 0.56 0.59 0.52 0.41 0.33 0.36 0.47 0.52 0.58 0.62 0.62 0.40 0.38 0.29 0.27 0.27 0.29 0.32 0.41 0.41 0.45 0.44 0.33 0.22 0.20 0.25 0.19 0.18 0.17 0.18 0.27
0.15 0.14 0.13 0.14 0.13 0.13 0.14 0.14 0.13 0.13 0.14 0.15 0.19 0.22 0.21 0.23 0.27 0.24 0.21 0.32 0.50 0.79 0.99 0.88 0.81 0.87 0.70 0.64 0.54 0.41 0.37 0.39 0.39 0.37 0.39 0.47 0.56 0.60 0.57 0.50 0.42 0.40 0.37 0.36 0.35 0.41 0.44 0.48 0.47 0.42 0.38 0.39 0.48 0.52 0.48 0.44 0.41 0.37 0.34 0.34 0.37 0.51 0.62 0.63 0.68 0.63 0.50 0.40 0.37 0.37 0.36 0.36 0.35 0.32 0.32 0.41 0.37 0.35 0.24 0.24 0.20 0.17 0.19 0.19 0.21
0.18 0.15 0.13 0.13 0.13 0.14 0.14 0.12 0.12 0.13 0.15 0.15 0.15 0.18 0.22 0.27 0.30 0.37 0.34 0.27 0.34 0.51 0.91 1.01 1.03 0.97 0.93 0.73 0.63 0.69 0.69 0.54 0.53 0.68 0.71 0.88 0.77 0.73 0.65 0.69 0.58 0.50 0.41 0.34 0.39 0.39 0.42 0.43 0.42 0.41 0.41 0.40 0.43 0.48 0.49 0.47 0.49 0.48 0.44 0.40 0.37 0.39 0.47 0.61 0.57 0.48 0.45 0.46 0.43 0.40 0.35 0.34 0.35 0.34 0.33 0.33 0.27 0.26 0.30 0.31 0.28 0.23 0.25 0.27 0.24
0.22 0.17 0.15 0.14 0.14 0.16 0.15 0.14 0.13 0.15 0.15 0.15 0.15 0.17 0.17 0.18 0.24 0.30 0.28 0.28 0.30 0.46 0.64 0.81 0.90 0.88 1.09 1.01 0.66 0.55 0.53 0.47 0.57 0.61 0.73 0.88 0.98 0.64 0.71 0.73 0.68 0.70 0.61 0.56 0.60 0.55 0.49 0.43 0.42 0.41 0.41 0.42 0.43 0.46 0.47 0.43 0.43 0.46 0.48 0.44 0.42 0.40 0.40 0.43 0.57 0.56 0.59 0.62 0.55 0.46 0.41 0.37 0.35 0.34 0.35 0.29 0.30 0.26 0.26 0.30 0.32 0.36 0.33 0.27 0.24
0.27 0.22 0.18 0.16 0.15 0.14 0.14 0.14 0.14 0.15 0.14 0.14 0.15 0.16 0.15 0.13 0.12 0.17 0.28 0.31 0.31 0.42 0.50 0.61 0.73 0.83 0.85 0.90 0.85 0.71 0.60 0.57 0.53 0.69 0.78 1.02 0.70 0.62 0.69 0.67 0.70 0.68 0.57 0.48 0.48 0.52 0.47 0.46 0.45 0.43 0.43 0.44 0.45 0.46 0.44 0.41 0.41 0.42 0.47 0.53 0.52 0.47 0.44 0.44 0.45 0.48 0.50 0.53 0.58 0.58 0.53 0.50 0.43 0.36 0.35 0.32 0.30 0.31 0.31 0.36 0.41 0.37 0.37 0.34 0.28
0.24 0.22 0.19 0.17 0.16 0.14 0.15 0.15 0.15 0.15 0.16 0.16 0.15 0.16 0.17 0.17 0.17 0.14 0.15 0.20 0.29 0.34 0.34 0.38 0.46 0.54 0.62 0.76 0.86 0.85 0.69 0.62 0.61 0.86 0.92 0.70 0.54 0.47 0.61 0.74 0.73 0.60 0.57 0.47 0.38 0.39 0.39 0.37 0.42 0.43 0.42 0.43 0.43 0.43 0.44 0.43 0.42 0.42 0.43 0.45 0.47 0.49 0.46 0.43 0.43 0.43 0.47 0.54 0.58 0.52 0.50 0.57 0.51 0.46 0.39 0.36 0.38 0.41 0.39 0.34 0.31 0.33 0.33 0.34 0.31
0.21 0.22 0.21 0.19 0.18 0.16 0.15 0.16 0.17 0.16 0.16 0.17 0.17 0.18 0.17 0.19 0.20 0.20 0.20 0.14 0.16 0.21 0.25 0.26 0.29 0.31 0.32 0.42 0.52 0.52 0.55 0.60 0.56 0.53 0.64 0.64 0.67 0.60 0.55 0.51 0.43 0.38 0.40 0.42 0.39 0.35 0.34 0.33 0.34 0.35 0.34 0.34 0.35 0.35 0.35 0.36 0.35 0.35 0.37 0.39 0.40 0.41 0.42 0.41 0.40 0.42 0.44 0.47 0.52 0.50 0.47 0.47 0.49 0.53 0.56 0.52 0.42 0.36 0.37 0.35 0.32 0.34 0.38 0.39 0.33
0.19 0.18 0.15 0.15 0.17 0.17 0.16 0.17 0.17 0.17 0.16 0.17 0.17 0.18 0.19 0.18 0.20 0.24 0.27 0.26 0.27 0.27 0.22 0.23 0.19 0.17 0.25 0.29 0.37 0.37 0.38 0.41 0.46 0.52 0.58 0.58 0.53 0.49 0.45 0.40 0.37 0.26 0.23 0.22 0.23 0.25 0.25 0.26 0.26 0.27 0.26 0.26 0.26 0.26 0.26 0.27 0.28 0.29 0.29 0.30 0.30 0.32 0.34 0.36 0.37 0.36 0.37 0.38 0.40 0.41 0.42 0.43 0.44 0.46 0.47 0.52 0.53 0.55 0.48 0.43 0.38 0.40 0.35 0.32 0.29
0.19 0.19 0.15 0.13 0.14 0.15 0.16 0.16 0.18 0.18 0.18 0.18 0.18 0.20 0.20 0.19 0.22 0.23 0.24 0.24 0.29 0.29 0.25 0.23 0.22 0.20 0.18 0.21 0.28 0.31 0.33 0.33 0.42 0.52 0.58 0.57 0.54 0.50 0.42 0.33 0.24 0.19 0.19 0.20 0.19 0.20 0.20 0.21 0.21 0.20 0.20 0.20 0.22 0.23 0.24 0.25 0.26 0.26 0.26 0.26 0.25 0.25 0.26 0.28 0.29 0.31 0.32 0.34 0.35 0.36 0.38 0.41 0.43 0.44 0.46 0.45 0.47 0.48 0.46 0.40 0.37 0.34 0.32 0.30 0.30
0.21 0.18 0.16 0.14 0.15 0.16 0.16 0.16 0.17 0.17 0.17 0.17 0.17 0.18 0.18 0.17 0.19 0.20 0.20 0.21 0.25 0.25 0.25 0.21 0.17 0.15 0.16 0.15 0.22 0.25 0.26 0.31 0.39 0.42 0.47 0.46 0.38 0.26 0.20 0.18 0.19 0.19 0.18 0.19 0.19 0.18 0.18 0.18 0.18 0.18 0.18 0.20 0.21 0.22 0.22 0.22 0.21 0.21 0.20 0.20 0.21 0.22 0.24 0.26 0.27 0.27 0.28 0.29 0.30 0.31 0.33 0.36 0.38 0.37 0.39 0.41 0.42 0.42 0.44 0.46 0.46 0.42 0.40 0.35 0.31
0.19 0.18 0.17 0.16 0.17 0.17 0.17 0.17 0.16 0.15 0.15 0.16 0.16 0.17 0.18 0.17 0.19 0.19 0.20 0.20 0.21 0.22 0.22 0.20 0.19 0.16 0.19 0.18 0.19 0.25 0.25 0.24 0.23 0.25 0.27 0.27 0.24 0.20 0.17 0.18 0.20 0.19 0.17 0.17 0.18 0.18 0.17 0.17 0.17 0.17 0.18 0.17 0.16 0.15 0.15 0.16 0.16 0.16 0.15 0.15 0.16 0.17 0.20 0.20 0.22 0.24 0.24 0.23 0.24 0.27 0.30 0.32 0.35 0.36 0.36 0.33 0.33 0.35 0.36 0.36 0.40 0.44 0.46 0.44 0.43
0.17 0.15 0.14 0.15 0.17 0.18 0.18 0.18 0.16 0.15 0.15 0.15 0.15 0.17 0.18 0.18 0.17 0.17 0.19 0.18 0.16 0.18 0.20 0.20 0.19 0.19 0.20 0.23 0.26 0.26 0.23 0.23 0.24 0.25 0.27 0.26 0.22 0.19 0.19 0.20 0.19 0.18 0.18 0.18 0.18 0.18 0.17 0.17 0.16 0.16 0.15 0.15 0.15 0.15 0.15 0.15 0.14 0.14 0.13 0.13 0.13 0.13 0.14 0.15 0.16 0.18 0.20 0.21 0.21 0.22 0.24 0.26 0.29 0.32 0.33 0.31 0.28 0.28 0.30 0.32 0.32 0.34 0.38 0.40 0.41
0.20 0.17 0.15 0.14 0.17 0.17 0.17 0.17 0.17 0.18 0.17 0.17 0.16 0.17 0.18 0.18 0.18 0.19 0.20 0.18 0.17 0.17 0.19 0.21 0.21 0.21 0.23 0.27 0.32 0.30 0.23 0.22 0.21 0.20 0.21 0.21 0.22 0.22 0.20 0.19 0.18 0.19 0.21 0.21 0.20 0.19 0.19 0.18 0.17 0.16 0.15 0.14 0.14 0.15 0.15 0.15 0.14 0.13 0.12 0.12 0.12 0.12 0.13 0.14 0.14 0.15 0.16 0.18 0.19 0.19 0.20 0.21 0.22 0.25 0.28 0.29 0.28 0.28 0.28 0.28 0.27 0.31 0.30 0.29 0.28
0.22 0.20 0.18 0.17 0.17 0.19 0.17 0.17 0.17 0.18 0.18 0.18 0.18 0.19 0.19 0.19 0.19 0.20 0.20 0.18 0.17 0.16 0.18 0.21 0.23 0.23 0.26 0.32 0.30 0.32 0.29 0.29 0.25 0.24 0.24 0.22 0.20 0.19 0.18 0.18 0.19 0.19 0.20 0.21 0.21 0.21 0.20 0.18 0.16 0.15 0.14 0.14 0.14 0.15 0.15 0.15 0.14 0.13 0.13 0.12 0.12 0.12 0.12 0.12 0.13 0.13 0.14 0.15 0.16 0.17 0.18 0.19 0.20 0.22 0.23 0.24 0.27 0.27 0.26 0.28 0.30 0.30 0.30 0.30 0.27
0.22 0.22 0.21 0.19 0.17 0.19 0.19 0.17 0.18 0.17 0.17 0.17 0.17 0.19 0.21 0.20 0.19 0.22 0.20 0.18 0.17 0.17 0.18 0.19 0.20 0.22 0.25 0.28 0.28 0.30 0.24 0.24 0.23 0.22 0.22 0.22 0.20 0.19 0.19 0.18 0.19 0.20 0.20 0.21 0.22 0.22 0.19 0.18 0.16 0.15 0.15 0.14 0.14 0.15 0.15 0.15 0.15 0.14 0.14 0.13 0.13 0.12 0.12 0.12 0.13 0.13 0.13 0.14 0.14 0.14 0.15 0.17 0.19 0.21 0.21 0.25 0.23 0.23 0.24 0.26 0.27 0.28 0.30 0.31 0.30
0.22 0.23 0.23 0.21 0.20 0.21 0.22 0.20 0.18 0.17 0.15 0.16 0.17 0.18 0.20 0.20 0.21 0.21 0.19 0.19 0.18 0.17 0.17 0.17 0.18 0.19 0.21 0.22 0.23 0.22 0.20 0.19 0.20 0.21 0.22 0.21 0.21 0.20 0.19 0.19 0.19 0.20 0.21 0.21 0.21 0.20 0.19 0.18 0.16 0.15 0.15 0.15 0.16 0.16 0.17 0.16 0.15 0.15 0.15 0.15 0.14 0.14 0.13 0.13 0.13 0.14 0.13 0.13 0.13 0.13 0.14 0.14 0.16 0.17 0.18 0.19 0.21 0.22 0.22 0.22 0.23 0.24 0.26 0.29 0.30
0.22 0.23 0.23 0.23 0.22 0.20 0.20 0.20 0.19 0.18 0.18 0.18 0.17 0.17 0.18 0.20 0.20 0.19 0.19 0.17 0.16 0.16 0.18 0.17 0.18 0.19 0.21 0.21 0.20 0.18 0.18 0.18 0.20 0.21 0.21 0.20 0.19 0.19 0.19 0.19 0.19 0.19 0.19 0.18 0.18 0.18 0.17 0.17 0.16 0.15 0.14 0.14 0.14 0.15 0.15 0.14 0.15 0.15 0.15 0.15 0.15 0.15 0.14 0.14 0.14 0.15 0.15 0.15 0.14 0.14 0.14 0.13 0.13 0.14 0.16 0.17 0.19 0.20 0.20 0.20 0.21 0.22 0.22 0.24 0.26
0.22 0.22 0.24 0.24 0.21 0.21 0.20 0.20 0.21 0.19 0.18 0.18 0.17 0.16 0.17 0.17 0.19 0.19 0.18 0.17 0.17 0.17 0.18 0.18 0.19 0.20 0.22 0.22 0.21 0.20 0.20 0.19 0.20 0.21 0.21 0.20 0.20 0.18 0.18 0.19 0.20 0.19 0.18 0.17 0.17 0.17 0.16 0.16 0.16 0.15 0.14 0.13 0.12 0.12 0.12 0.12 0.13 0.14 0.15 0.15 0.15 0.15 0.15 0.15 0.15 0.15 0.16 0.16 0.15 0.14 0.14 0.14 0.14 0.14 0.14 0.15 0.16 0.18 0.18 0.19 0.20 0.21 0.22 0.22 0.24
0.21 0.22 0.23 0.24 0.23 0.21 0.20 0.19 0.20 0.19 0.20 0.21 0.21 0.19 0.17 0.16 0.19 0.19 0.18 0.17 0.18 0.19 0.19 0.19 0.19 0.20 0.22 0.24 0.24 0.22 0.22 0.21 0.21 0.21 0.22 0.21 0.20 0.18 0.18 0.19 0.19 0.19 0.18 0.18 0.17 0.16 0.15 0.16 0.16 0.15 0.14 0.11 0.10 0.09 0.09 0.09 0.10 0.10 0.11 0.12 0.13 0.14 0.15 0.15 0.15 0.14 0.14 0.14 0.14 0.14 0.14 0.14 0.13 0.14 0.15 0.16 0.16 0.17 0.18 0.18 0.19 0.19 0.20 0.20 0.23
0.21 0.22 0.22 0.23 0.24 0.23 0.22 0.22 0.22 0.23 0.22 0.22 0.23 0.21 0.18 0.18 0.20 0.18 0.18 0.19 0.19 0.19 0.20 0.19 0.19 0.20 0.23 0.25 0.25 0.24 0.23 0.22 0.22 0.22 0.22 0.21 0.20 0.19 0.17 0.17 0.17 0.16 0.15 0.13 0.13 0.14 0.14 0.14 0.13 0.13 0.12 0.10 0.09 0.08 0.08 0.08 0.09 0.09 0.09 0.10 0.10 0.10 0.11 0.11 0.12 0.12 0.12 0.12 0.12 0.13 0.13 0.13 0.13 0.13 0.13 0.14 0.15 0.16 0.16 0.17 0.18 0.18 0.18 0.19 0.21
0.21 0.22 0.22 0.22 0.22 0.25 0.26 0.27 0.27 0.25 0.24 0.24 0.23 0.21 0.19 0.19 0.20 0.17 0.19 0.18 0.19 0.20 0.20 0.19 0.19 0.20 0.23 0.25 0.25 0.24 0.23 0.21 0.20 0.20 0.20 0.19 0.19 0.18 0.18 0.17 0.16 0.15 0.14 0.12 0.11 0.10 0.10 0.10 0.10 0.10 0.10 0.09 0.09 0.08 0.08 0.08 0.08 0.08 0.09 0.09 0.09 0.09 0.09 0.09 0.09 0.09 0.09 0.09 0.10 0.10 0.11 0.11 0.11 0.12 0.13 0.14 0.14 0.15 0.16 0.15 0.16 0.16 0.17 0.18 0.18
0.21 0.22 0.22 0.22 0.23 0.24 0.27 0.28 0.28 0.28 0.27 0.26 0.23 0.21 0.21 0.20 0.18 0.17 0.20 0.19 0.21 0.22 0.21 0.19 0.19 0.20 0.21 0.23 0.24 0.24 0.23 0.21 0.19 0.18 0.17 0.17 0.16 0.16 0.15 0.15 0.14 0.12 0.11 0.09 0.09 0.08 0.08 0.08 0.08 0.08 0.09 0.09 0.09 0.08 0.08 0.08 0.08 0.08 0.08 0.08 0.08 0.08 0.08 0.08 0.08 0.08 0.08 0.09 0.08 0.08 0.09 0.09 0.09 0.09 0.10 0.11 0.12 0.12 0.14 0.14 0.15 0.15 0.16 0.16 0.18
0.21 0.22 0.22 0.23 0.23 0.24 0.25 0.26 0.26 0.26 0.25 0.25 0.25 0.24 0.21 0.17 0.16 0.17 0.19 0.19 0.21 0.20 0.19 0.18 0.19 0.20 0.20 0.21 0.21 0.20 0.19 0.17 0.16 0.16 0.15 0.14 0.13 0.12 0.12 0.11 0.10 0.09 0.09 0.08 0.07 0.06 0.06 0.06 0.06 0.07 0.07 0.08 0.08 0.08 0.08 0.08 0.08 0.09 0.09 0.08 0.07 0.08 0.08 0.08 0.07 0.08 0.08 0.08 0.08 0.08 0.08 0.08 0.08 0.08 0.08 0.09 0.09 0.10 0.11 0.12 0.13 0.14 0.15 0.15 0.16
0.20 0.21 0.21 0.23 0.24 0.24 0.25 0.25 0.25 0.24 0.24 0.25 0.23 0.21 0.18 0.17 0.17 0.18 0.19 0.20 0.20 0.20 0.19 0.19 0.19 0.19 0.18 0.19 0.19 0.18 0.16 0.14 0.13 0.12 0.12 0.11 0.10 0.09 0.09 0.08 0.07 0.07 0.06 0.06 0.05 0.05 0.06 0.05 0.06 0.06 0.06 0.07 0.07 0.07 0.07 0.07 0.08 0.09 0.08 0.07 0.08 0.08 0.08 0.08 0.08 0.07 0.08 0.08 0.08 0.07 0.07 0.07 0.07 0.07 0.07 0.07 0.08 0.09 0.09 0.10 0.11 0.12 0.13 0.14 0.14